EW7966 Weather Reports


time (UTC)temp
F
wind
direction
speed
knots
gust
knots
rain 1hr
in
rain 24hr
in
rain mn
in
humidity
%
barometer
mb
20260509152505 62 292 11.3 17.4 0.00 0.00 0.00 27 1013.9
20260509152006 61 288 9.6 17.4 0.00 0.00 0.00 30 1014.0
20260509151557 61 294 10.4 16.5 0.00 0.00 0.00 32 1005.4
20260509151508 61 293 10.4 16.5 0.00 0.00 0.00 30 1014.0
20260509151504 61 316 9.6 16.5 0.00 0.00 0.00 30 1005.4
20260509151006 61 279 10.4 16.5 0.00 0.00 0.00 31 1014.0
20260509150506 60 301 11.3 16.5 0.00 0.00 0.00 31 1014.0
20260509150007 60 318 12.2 16.5 0.00 0.00 0.00 31 1014.0
20260509150005 60 318 11.3 16.5 0.00 0.00 0.00 31 1005.6
20260509145504 60 281 11.3 15.6 0.00 0.00 0.00 33 1014.0
20260509145006 60 292 7.8 13.9 0.00 0.00 0.00 37 1014.0
20260509144506 59 294 7.0 11.3 0.00 0.00 0.00 38 1014.1
20260509144503 59 294 6.1 11.3 0.00 0.00 0.00 38 1005.6
20260509144006 58 280 3.5 8.7 0.00 0.00 0.00 42 1014.1
20260509143505 58 294 3.5 9.6 0.00 0.00 0.00 40 1014.1
20260509143007 57 281 6.1 9.6 0.00 0.00 0.00 43 1014.2
20260509143004 57 281 5.2 9.6 0.00 0.00 0.00 43 1005.7
20260509142506 56 294 4.3 8.7 0.00 0.00 0.00 46 1014.1
20260509141506 53 293 2.6 5.2 0.00 0.00 0.00 55 1014.2
20260509141504 53 293 1.7 5.2 0.00 0.00 0.00 55 1005.7
20260509141005 52 250 0.9 3.5 0.00 0.00 0.00 57 1014.2
20260509140505 52 250 1.7 3.5 0.00 0.00 0.00 56 1014.2
20260509140003 53 250 1.7 5.2 0.00 0.00 0.00 56 1005.7
20260509135505 52 255 2.6 4.3 0.00 0.00 0.00 55 1014.0
20260509135006 52 271 2.6 4.3 0.00 0.00 0.00 57 1014.0
20260509134505 52 254 1.7 6.1 0.00 0.00 0.00 59 1013.9
20260509134503 52 254 1.7 6.1 0.00 0.00 0.00 59 1005.5
20260509134006 52 246 2.6 6.1 0.00 0.00 0.00 57 1013.9
20260509133505 51 257 2.6 7.0 0.00 0.00 0.00 58 1014.0
20260509133006 51 232 2.6 7.0 0.00 0.00 0.00 58 1013.9
20260509132504 51 269 2.6 6.1 0.00 0.00 0.00 59 1013.6
20260509131505 51 265 3.5 7.0 0.00 0.00 0.00 59 1013.6
20260509131007 51 237 3.5 7.0 0.00 0.00 0.00 61 1013.6
20260509130009 50 254 2.6 8.7 0.00 0.00 0.00 64 1005.6
20260509130006 50 254 3.5 8.7 0.00 0.00 0.00 64 1013.6
20260509125505 49 240 2.6 7.0 0.00 0.00 0.00 65 1013.5
20260509125005 48 234 3.5 7.0 0.00 0.00 0.00 66 1013.4
20260509124503 47 211 1.7 5.2 0.00 0.00 0.00 67 1005.4
20260509124006 46 225 2.6 6.1 0.00 0.00 0.00 68 1013.3
20260509123504 46 196 3.5 6.1 0.00 0.00 0.00 68 1013.3
20260509123006 46 217 1.7 6.1 0.00 0.00 0.00 68 1013.2
20260509123003 46 217 1.7 6.1 0.00 0.00 0.00 68 1005.2
20260509122505 46 218 2.6 6.1 0.00 0.00 0.00 68 1013.2
20260509122006 45 220 2.6 5.2 0.00 0.00 0.00 68 1013.1
20260509121505 45 209 2.6 5.2 0.00 0.00 0.00 67 1013.1
20260509121033 45 199 3.5 5.2 0.00 0.00 0.00 67 1013.1
20260509120505 45 207 2.6 5.2 0.00 0.00 0.00 67 1013.0
20260509120012 45 214 1.7 6.1 0.00 0.00 0.00 67 1005.0
20260509120008 45 214 2.6 6.1 0.00 0.00 0.00 67 1012.9
20260509115504 46 191 2.6 6.1 0.00 0.00 0.00 66 1012.9
20260509114505 46 188 2.6 5.2 0.00 0.00 0.00 66 1012.7
20260509114503 46 188 1.7 5.2 0.00 0.00 0.00 66 1004.9
20260509113505 46 222 2.6 6.1 0.00 0.00 0.00 66 1012.8
20260509113006 46 206 2.6 5.2 0.00 0.00 0.00 66 1012.7
20260509113004 46 206 1.7 5.2 0.00 0.00 0.00 66 1004.8
20260509112005 46 222 2.6 6.1 0.00 0.00 0.00 65 1012.6
20260509111505 46 213 2.6 7.0 0.00 0.00 0.00 65 1012.6
20260509111503 46 213 2.6 7.0 0.00 0.00 0.00 65 1004.9
20260509111005 46 211 3.5 7.0 0.00 0.00 0.00 65 1012.6
20260509110506 46 200 3.5 6.1 0.00 0.00 0.00 65 1012.6
20260509110006 46 246 2.6 6.1 0.00 0.00 0.00 65 1012.7
20260509110003 46 246 2.6 6.1 0.00 0.00 0.00 65 1005.1
20260509105505 46 190 3.5 7.0 0.00 0.00 0.00 65 1012.8
20260509105000 46 205 3.5 7.0 0.00 0.00 0.00 64 1012.8
20260509104505 47 196 2.6 5.2 0.00 0.00 0.00 64 1012.8
20260509104503 47 196 2.6 5.2 0.00 0.00 0.00 64 1005.1
20260509104005 46 202 2.6 4.3 0.00 0.00 0.00 64 1012.7
20260509103505 46 190 1.7 3.5 0.00 0.00 0.00 64 1012.7
20260509103005 46 221 0.9 3.5 0.00 0.00 0.00 64 1012.7
20260509103003 46 221 0.9 3.5 0.00 0.00 0.00 64 1005.1
20260509102505 47 221 0.0 3.5 0.00 0.00 0.00 64 1012.7
20260509102006 47 221 1.7 3.5 0.00 0.00 0.00 63 1012.7
20260509101502 47 221 0.0 4.3 0.00 0.00 0.00 62 1005.1
20260509101006 48 256 0.9 6.1 0.00 0.00 0.00 61 1012.7
20260509100504 48 256 1.7 7.0 0.00 0.00 0.00 60 1012.7
20260509100008 49 237 2.6 8.7 0.00 0.00 0.00 60 1012.7
20260509100005 49 237 2.6 8.7 0.00 0.00 0.00 60 1005.1
20260509095505 49 187 5.2 8.7 0.00 0.00 0.00 59 1012.7
20260509095005 49 188 2.6 8.7 0.00 0.00 0.00 59 1012.6
20260509094505 49 203 3.5 11.3 0.00 0.00 0.00 59 1004.9
20260509093505 49 171 6.1 11.3 0.00 0.00 0.00 59 1012.5
20260509093004 49 178 5.2 11.3 0.00 0.00 0.00 59 1004.9
20260509092505 49 217 5.2 9.6 0.00 0.00 0.00 60 1012.5
20260509092005 49 181 7.0 12.2 0.00 0.00 0.00 60 1012.5
20260509091506 49 175 5.2 10.4 0.00 0.00 0.00 60 1012.5
20260509091504 49 175 4.3 10.4 0.00 0.00 0.00 60 1004.9
20260509091005 49 205 5.2 12.2 0.00 0.00 0.00 60 1012.6
20260509090505 50 227 4.3 12.2 0.00 0.00 0.00 59 1012.6
20260509090004 50 173 3.5 9.6 0.00 0.00 0.00 59 1005.1
20260509085504 50 240 3.5 12.2 0.00 0.00 0.00 58 1012.6
20260509085005 50 192 6.1 12.2 0.00 0.00 0.00 58 1012.6
20260509084504 50 258 5.2 13.0 0.00 0.00 0.00 57 1012.7
20260509084005 50 195 5.2 10.4 0.00 0.00 0.00 57 1012.7
20260509083504 50 205 6.1 13.0 0.00 0.00 0.00 57 1012.5
20260509083007 50 235 6.1 12.2 0.00 0.00 0.00 57 1012.6
20260509083003 50 235 6.1 12.2 0.00 0.00 0.00 57 1005.1
20260509082505 50 155 5.2 9.6 0.00 0.00 0.00 57 1012.6
20260509082006 51 219 5.2 13.0 0.00 0.00 0.00 57 1012.7
20260509081505 51 170 4.3 13.0 0.00 0.00 0.00 57 1012.7
20260509081503 51 170 4.3 13.0 0.00 0.00 0.00 57 1005.4
20260509081006 51 220 6.1 13.9 0.00 0.00 0.00 56 1012.7
20260509080007 51 196 5.2 12.2 0.00 0.00 0.00 56 1012.7
20260509080004 51 196 4.3 12.2 0.00 0.00 0.00 56 1005.5
20260509075505 51 199 5.2 16.5 0.00 0.00 0.00 57 1012.7
20260509075005 50 190 7.0 16.5 0.00 0.00 0.00 57 1012.7
20260509074505 50 191 5.2 12.2 0.00 0.00 0.00 58 1012.8
20260509074503 50 191 4.3 12.2 0.00 0.00 0.00 58 1005.6
20260509074006 50 207 6.1 11.3 0.00 0.00 0.00 58 1012.9
20260509073505 50 219 6.1 9.6 0.00 0.00 0.00 59 1013.0
20260509073003 49 166 5.2 11.3 0.00 0.00 0.00 60 1005.8
20260509072005 48 182 3.5 6.1 0.00 0.00 0.00 62 1013.2
20260509071506 48 169 2.6 5.2 0.00 0.00 0.00 62 1013.3
20260509071503 48 169 2.6 5.2 0.00 0.00 0.00 62 1006.0
20260509071002 49 171 1.7 6.1 0.00 0.00 0.00 62 1013.5
20260509070505 49 172 3.5 7.8 0.00 0.00 0.00 60 1013.5
20260509070004 49 187 4.3 7.8 0.00 0.00 0.00 60 1006.3
20260509065006 50 184 5.2 9.6 0.00 0.00 0.00 58 1013.6
20260509064505 50 164 6.1 8.7 0.00 0.00 0.00 57 1013.8
20260509064503 50 164 5.2 8.7 0.00 0.00 0.00 57 1006.5
20260509064006 51 178 5.2 8.7 0.00 0.00 0.00 57 1013.8
20260509063505 51 165 5.2 9.6 0.00 0.00 0.00 56 1013.8
20260509063007 51 171 7.0 8.7 0.00 0.00 0.00 55 1013.9
20260509063002 51 171 7.0 8.7 0.00 0.00 0.00 55 1006.6
20260509062006 52 164 7.8 11.3 0.00 0.00 0.00 54 1014.0
20260509061504 52 170 6.1 13.0 0.00 0.00 0.00 54 1014.1
20260509061502 52 170 6.1 13.0 0.00 0.00 0.00 54 1006.8
20260509061005 52 178 6.1 12.2 0.00 0.00 0.00 54 1014.2
20260509060058 52 176 7.0 13.0 0.00 0.00 0.00 55 1007.0
20260509060000 52 167 7.0 13.0 0.00 0.00 0.00 55 1014.3
20260509055506 52 175 8.7 13.0 0.00 0.00 0.00 55 1014.3
20260509055007 52 171 7.0 9.6 0.00 0.00 0.00 55 1014.4
20260509054504 52 167 5.2 9.6 0.00 0.00 0.00 55 1007.3
20260509053459 52 184 4.3 9.6 0.00 0.00 0.00 56 1014.6
20260509053010 52 182 7.0 9.6 0.00 0.00 0.00 56 1007.5
20260509053006 52 182 7.0 9.6 0.00 0.00 0.00 56 1014.8
20260509052505 52 159 7.0 9.6 0.00 0.00 0.00 57 1014.8
20260509052007 51 171 7.0 9.6 0.00 0.00 0.00 58 1014.7
20260509051505 51 191 6.1 8.7 0.00 0.00 0.00 60 1014.7
20260509051006 50 161 4.3 6.1 0.00 0.00 0.00 62 1014.7
20260509050506 50 157 4.3 7.0 0.00 0.00 0.00 65 1014.8
20260509050006 48 167 3.5 5.2 0.00 0.00 0.00 68 1007.6
20260509045505 48 150 0.9 4.3 0.00 0.00 0.00 71 1015.0
20260509045007 48 150 1.7 3.5 0.00 0.00 0.00 71 1015.0
20260509044505 47 150 1.7 3.5 0.00 0.00 0.00 71 1015.0
20260509043007 47 205 1.7 3.5 0.00 0.00 0.00 71 1015.1
20260509043005 47 205 0.9 3.5 0.00 0.00 0.00 71 1007.9
20260509042506 47 178 0.9 3.5 0.00 0.00 0.00 70 1015.0
20260509042006 48 178 2.6 3.5 0.00 0.00 0.00 68 1015.1
20260509041506 49 178 0.9 2.6 0.00 0.00 0.00 67 1015.2
20260509041504 49 178 0.9 2.6 0.00 0.00 0.00 67 1007.9
20260509041007 49 178 1.7 4.3 0.00 0.00 0.00 65 1015.1
20260509040505 49 178 2.6 4.3 0.00 0.00 0.00 65 1015.1
20260509040007 49 175 3.5 4.3 0.00 0.00 0.00 66 1015.0
20260509040005 49 175 2.6 4.3 0.00 0.00 0.00 66 1007.7
20260509034505 48 160 0.0 0.0 0.00 0.00 0.00 68 1015.1
20260509034503 48 160 0.0 0.0 0.00 0.00 0.00 68 1007.8
20260509034007 48 160 0.0 0.0 0.00 0.00 0.00 68 1014.9
20260509033506 49 160 0.0 0.9 0.00 0.00 0.00 67 1014.8
20260509033008 49 160 0.0 0.9 0.00 0.00 0.00 67 1007.6
20260509032506 50 160 0.0 0.9 0.00 0.00 0.00 63 1014.9
20260509032018 51 160 0.0 1.7 0.00 0.00 0.00 62 1014.9
20260509031505 51 160 0.0 4.3 0.00 0.00 0.00 60 1007.4
20260509031007 52 160 2.6 4.3 0.00 0.00 0.00 60 1014.8
20260509030505 51 160 1.7 7.0 0.00 0.00 0.00 61 1014.6
20260509030007 51 154 3.5 7.0 0.00 0.00 0.00 62 1014.4
20260509030004 51 154 2.6 7.0 0.00 0.00 0.00 62 1007.1
20260509025505 51 156 4.3 7.0 0.00 0.00 0.00 63 1014.3
20260509025006 51 152 5.2 7.0 0.00 0.00 0.00 63 1014.3
20260509024506 51 153 3.5 5.2 0.00 0.00 0.00 63 1014.4
20260509024504 51 153 2.6 5.2 0.00 0.00 0.00 63 1007.0
20260509023506 51 101 1.7 2.6 0.00 0.00 0.00 64 1014.5
20260509023008 52 101 0.0 2.6 0.00 0.00 0.00 62 1007.0
20260509022506 52 101 1.7 3.5 0.00 0.00 0.00 62 1014.4
20260509022005 52 101 1.7 5.2 0.00 0.00 0.00 62 1014.4
20260509021512 52 101 1.7 5.2 0.00 0.00 0.00 62 1006.8
20260509021006 52 101 2.6 3.5 0.00 0.00 0.00 62 1014.2
20260509020004 52 101 1.7 2.6 0.00 0.00 0.00 61 1006.6
20260509015506 53 101 1.7 2.6 0.00 0.00 0.00 60 1014.0
20260509015006 53 101 2.6 2.6 0.00 0.00 0.00 61 1013.9
20260509014501 54 101 1.7 2.6 0.00 0.00 0.00 59 1006.4
20260509013505 55 101 1.7 2.6 0.00 0.00 0.00 56 1013.9
20260509013011 56 101 1.7 3.5 0.00 0.00 0.00 54 1006.3
20260509012505 57 101 2.6 3.5 0.00 0.00 0.00 54 1013.6
20260509011506 58 94 2.6 5.2 0.00 0.00 0.00 51 1013.8
20260509011504 58 94 1.7 5.2 0.00 0.00 0.00 51 1006.2
20260509011006 58 94 1.7 2.6 0.00 0.00 0.00 50 1013.9
20260509010459 58 94 0.9 2.6 0.00 0.00 0.00 50 1014.0
20260509010006 58 94 1.7 5.2 0.00 0.00 0.00 48 1013.8
20260509010004 58 94 0.9 5.2 0.00 0.00 0.00 48 1006.2
20260509005505 58 94 2.6 6.1 0.00 0.00 0.00 46 1013.9
20260509004514 59 93 5.2 9.6 0.00 0.00 0.00 45 1006.2
20260509004505 59 93 5.2 9.6 0.00 0.00 0.00 45 1013.9
20260509004006 60 80 7.0 9.6 0.00 0.00 0.00 44 1013.8
20260509003503 61 98 7.0 9.6 0.00 0.00 0.00 43 1013.7
20260509003006 61 78 6.1 8.7 0.00 0.00 0.00 43 1013.7
20260509003004 61 78 5.2 8.7 0.00 0.00 0.00 43 1005.9
20260509002505 61 109 3.5 7.0 0.00 0.00 0.00 43 1013.7
20260509002005 61 76 3.5 7.8 0.00 0.00 0.00 43 1013.7
20260509001506 61 69 5.2 7.8 0.00 0.00 0.00 42 1013.8
20260509001504 61 69 4.3 7.8 0.00 0.00 0.00 42 1006.1
20260509001006 62 42 4.3 7.8 0.00 0.00 0.00 42 1013.8
20260509000505 62 69 5.2 7.0 0.00 0.00 0.00 41 1013.8
20260509000005 62 17 2.6 5.2 0.00 0.00 0.00 40 1006.0
20260508235505 62 52 2.6 7.8 0.00 0.00 0.00 42 1013.8
20260508235007 62 39 3.5 8.7 0.00 0.00 0.00 40 1013.8
20260508234505 62 30 2.6 8.7 0.00 0.00 0.00 39 1013.7
20260508234503 62 30 2.6 8.7 0.00 0.00 0.00 39 1005.9
20260508233007 62 23 6.1 9.6 0.00 0.00 0.00 40 1013.6
20260508233004 62 23 5.2 9.6 0.00 0.00 0.00 40 1005.9
20260508232504 62 5 4.3 9.6 0.00 0.00 0.00 41 1013.7
20260508232007 62 323 1.7 9.6 0.00 0.00 0.00 41 1013.7
20260508231504 62 360 6.1 11.3 0.00 0.00 0.00 42 1005.9
20260508231006 62 61 7.0 11.3 0.00 0.00 0.00 42 1013.7
20260508230506 62 84 6.1 8.7 0.00 0.00 0.00 41 1013.7
20260508230013 62 49 4.3 9.6 0.00 0.00 0.00 42 1005.8
20260508225459 62 53 7.0 9.6 0.00 0.00 0.00 43 1013.6
20260508225000 62 17 2.6 9.6 0.00 0.00 0.00 43 1013.6
20260508224506 62 89 4.3 9.6 0.00 0.00 0.00 42 1013.7
20260508224504 62 89 4.3 9.6 0.00 0.00 0.00 42 1005.9
20260508224008 61 13 3.5 10.4 0.00 0.00 0.00 41 1013.8
20260508223007 62 71 7.0 11.3 0.00 0.00 0.00 40 1013.8
20260508223004 62 71 7.0 11.3 0.00 0.00 0.00 40 1006.1
20260508222505 62 17 6.1 11.3 0.00 0.00 0.00 41 1014.0
20260508222006 61 17 2.6 7.8 0.00 0.00 0.00 43 1013.8
20260508221501 62 94 4.3 10.4 0.00 0.00 0.00 41 1006.1
20260508221006 62 33 5.2 10.4 0.00 0.00 0.00 43 1014.0
20260508220506 62 40 3.5 9.6 0.00 0.00 0.00 42 1013.9
20260508220104 62 56 4.3 12.2 0.00 0.00 0.00 43 1006.3
20260508220000 62 64 6.1 12.2 0.00 0.00 0.00 42 1014.1
20260508215505 62 24 4.3 11.3 0.00 0.00 0.00 43 1014.0
20260508214505 61 44 2.6 9.6 0.00 0.00 0.00 44 1014.1
20260508214007 62 87 6.1 11.3 0.00 0.00 0.00 42 1014.2
20260508213006 63 33 4.3 9.6 0.00 0.00 0.00 42 1014.2
20260508213004 63 33 3.5 9.6 0.00 0.00 0.00 42 1006.4
20260508212506 63 17 2.6 16.5 0.00 0.00 0.00 39 1014.2
20260508212007 62 13 2.6 8.7 0.00 0.00 0.00 45 1014.2
20260508211507 62 31 3.5 10.4 0.00 0.00 0.00 44 1006.4
20260508211505 62 31 4.3 10.4 0.00 0.00 0.00 44 1014.2
20260508211009 62 355 6.1 10.4 0.00 0.00 0.00 45 1014.3
20260508210505 61 27 2.6 12.2 0.00 0.00 0.00 43 1014.4
20260508210006 61 51 7.8 13.9 0.00 0.00 0.00 44 1014.4
20260508210004 61 51 7.0 13.9 0.00 0.00 0.00 44 1006.6
20260508205505 61 45 7.8 13.9 0.00 0.00 0.00 44 1014.4
20260508205006 62 22 7.0 11.3 0.00 0.00 0.00 42 1014.4
20260508204505 62 9 3.5 10.4 0.00 0.00 0.00 45 1006.6
20260508204007 62 32 6.1 13.0 0.00 0.00 0.00 47 1014.5
20260508203506 61 43 6.1 14.8 0.00 0.00 0.00 44 1014.5
20260508203007 61 348 7.8 14.8 0.00 0.00 0.00 48 1014.5
20260508203004 61 348 7.0 14.8 0.00 0.00 0.00 48 1006.7
20260508202506 60 59 7.0 15.6 0.00 0.00 0.00 46 1014.5
20260508202006 61 32 9.6 15.6 0.00 0.00 0.00 48 1014.6
20260508201506 60 20 6.1 12.2 0.00 0.00 0.00 48 1014.6
20260508201504 60 20 6.1 12.2 0.00 0.00 0.00 48 1006.9
20260508200503 60 80 4.3 13.9 0.00 0.00 0.00 47 1014.8
20260508200004 60 333 3.5 13.9 0.00 0.00 0.00 45 1007.2
20260508195505 60 5 3.5 10.4 0.00 0.00 0.00 47 1015.0
20260508195006 59 12 6.1 12.2 0.00 0.00 0.00 47 1015.0
20260508194506 60 27 5.2 14.8 0.00 0.00 0.00 44 1007.4
20260508194006 60 37 6.1 13.9 0.00 0.00 0.00 47 1015.1
20260508193506 60 17 8.7 13.9 0.00 0.00 0.00 45 1015.2
20260508193006 60 324 5.2 11.3 0.00 0.00 0.00 44 1015.1
20260508193003 60 324 4.3 11.3 0.00 0.00 0.00 44 1007.4
20260508192008 60 346 4.3 12.2 0.00 0.00 0.00 46 1015.1
20260508191506 59 49 5.2 12.2 0.00 0.00 0.00 53 1015.1
20260508191006 59 360 7.8 12.2 0.00 0.00 0.00 48 1015.2
20260508190505 59 26 1.7 10.4 0.00 0.00 0.00 48 1015.2
20260508190006 59 311 4.3 10.4 0.00 0.00 0.00 47 1015.3
20260508190004 59 311 4.3 10.4 0.00 0.00 0.00 47 1007.7
20260508185007 59 21 7.8 11.3 0.00 0.00 0.00 46 1015.4
20260508184506 59 5 5.2 13.9 0.00 0.00 0.00 49 1015.4
20260508184504 59 5 4.3 13.9 0.00 0.00 0.00 49 1007.8
20260508184006 59 355 6.1 13.9 0.00 0.00 0.00 44 1015.4
20260508183458 59 19 7.8 12.2 0.00 0.00 0.00 47 1015.5
20260508183006 58 16 5.2 13.9 0.00 0.00 0.00 48 1015.4
20260508182505 58 355 2.6 13.9 0.00 0.00 0.00 49 1015.5
20260508182005 58 13 8.7 13.0 0.00 0.00 0.00 49 1015.4
20260508181505 58 63 6.1 13.0 0.00 0.00 0.00 47 1015.6
20260508181007 59 22 7.0 13.0 0.00 0.00 0.00 48 1015.6
20260508180505 59 355 2.6 11.3 0.00 0.00 0.00 50 1015.7
20260508180007 58 348 3.5 11.3 0.00 0.00 0.00 47 1015.7
20260508180004 58 348 3.5 11.3 0.00 0.00 0.00 47 1008.2
20260508175505 58 336 2.6 10.4 0.00 0.00 0.00 49 1015.7
20260508175006 57 38 5.2 11.3 0.00 0.00 0.00 48 1015.8
20260508174506 57 28 7.0 11.3 0.00 0.00 0.00 47 1008.4
20260508174007 57 31 5.2 11.3 0.00 0.00 0.00 51 1015.9
20260508173505 58 28 7.0 11.3 0.00 0.00 0.00 48 1016.0
20260508173007 57 18 4.3 12.2 0.00 0.00 0.00 50 1015.9
20260508173004 57 18 3.5 12.2 0.00 0.00 0.00 50 1008.6
20260508172505 57 360 4.3 12.2 0.00 0.00 0.00 49 1016.0
20260508172007 57 306 5.2 12.2 0.00 0.00 0.00 45 1015.9
20260508171504 57 50 2.6 6.1 0.00 0.00 0.00 47 1008.5
20260508171006 57 13 3.5 10.4 0.00 0.00 0.00 50 1015.9
20260508170505 57 5 5.2 10.4 0.00 0.00 0.00 48 1016.0
20260508170007 56 335 4.3 7.8 0.00 0.00 0.00 50 1016.1
20260508170004 56 335 3.5 7.8 0.00 0.00 0.00 50 1008.8
20260508165505 56 321 3.5 8.7 0.00 0.00 0.00 52 1016.0
20260508165006 55 304 5.2 10.4 0.00 0.00 0.00 54 1016.0
20260508164603 55 42 5.2 10.4 0.00 0.00 0.00 52 1008.7
20260508164506 55 349 6.1 10.4 0.00 0.00 0.00 51 1016.0
20260508164504 55 349 5.2 10.4 0.00 0.00 0.00 51 1008.7
20260508164006 54 311 3.5 10.4 0.00 0.00 0.00 53 1016.1
20260508163506 54 317 5.2 11.3 0.00 0.00 0.00 53 1016.1
20260508163006 54 339 6.1 13.0 0.00 0.00 0.00 54 1016.1
20260508163003 54 339 5.2 13.0 0.00 0.00 0.00 54 1008.8
20260508162506 54 350 7.8 13.0 0.00 0.00 0.00 55 1016.1
20260508162007 54 305 6.1 8.7 0.00 0.00 0.00 55 1016.1
20260508161505 53 316 3.5 9.6 0.00 0.00 0.00 58 1008.8
20260508161006 53 342 4.3 10.4 0.00 0.00 0.00 59 1016.1
20260508160505 53 324 7.0 10.4 0.00 0.00 0.00 58 1016.1
20260508160011 52 315 4.3 8.7 0.00 0.00 0.00 63 1008.7
20260508160007 52 315 4.3 8.7 0.00 0.00 0.00 63 1016.1
20260508155505 52 296 3.5 9.6 0.00 0.00 0.00 64 1016.3
20260508155007 52 312 7.0 9.6 0.00 0.00 0.00 66 1016.3
20260508154505 51 297 3.5 9.6 0.00 0.00 0.00 67 1016.2
20260508154502 51 297 2.6 9.6 0.00 0.00 0.00 67 1008.9
20260508153505 51 303 2.6 9.6 0.00 0.00 0.00 69 1016.3
20260508153007 51 294 5.2 9.6 0.00 0.00 0.00 67 1016.3
20260508153004 51 294 5.2 9.6 0.00 0.00 0.00 67 1009.0